N737SY KDFW-KHQZ

Flight info

Callsign N737SY
Flight time 0h 13m
Altitude 7000
Route DCT
Aircraft DA50/L-VGD/C

Departure

Time 2026-05-04 05:12
Airport Dallas Fort Worth International Airport (KDFW)

Arrival

Time 2026-05-04 05:26
Airport Mesquite Metro Airport (KHQZ)
Time Latitude Longitude Altitude Speed Heading
2026-05-04 05:02 32.91261 -97.03491 620 ft 0 kts 270°
2026-05-04 05:07 32.91248 -97.03485 631 ft 4 kts 126°
2026-05-04 05:07 32.91226 -97.03471 610 ft 3 kts 172°
2026-05-04 05:07 32.91218 -97.03470 610 ft 0 kts 173°
2026-05-04 05:09 32.91117 -97.03474 610 ft 6 kts 181°
2026-05-04 05:09 32.91069 -97.03476 621 ft 6 kts 180°
2026-05-04 05:10 32.91027 -97.03472 617 ft 6 kts 154°
2026-05-04 05:10 32.91011 -97.03401 610 ft 10 kts 89°
2026-05-04 05:10 32.91010 -97.03319 610 ft 12 kts 93°
2026-05-04 05:10 32.91010 -97.03205 610 ft 13 kts 92°
2026-05-04 05:11 32.91009 -97.03108 611 ft 11 kts 89°
2026-05-04 05:11 32.91008 -97.03017 611 ft 10 kts 107°
2026-05-04 05:11 32.90973 -97.02992 611 ft 10 kts 175°
2026-05-04 05:11 32.90699 -97.02991 611 ft 65 kts 180°
2026-05-04 05:12 32.90164 -97.02975 682 ft 86 kts 179°
2026-05-04 05:12 32.89528 -97.02963 882 ft 93 kts 176°
2026-05-04 05:12 32.88860 -97.02909 1096 ft 96 kts 162°
2026-05-04 05:12 32.88365 -97.02343 1272 ft 105 kts 131°
2026-05-04 05:13 32.87967 -97.01601 1473 ft 108 kts 130°
2026-05-04 05:13 32.87535 -97.00899 1749 ft 104 kts 133°
2026-05-04 05:13 32.87118 -97.00190 1998 ft 105 kts 132°
2026-05-04 05:13 32.86699 -96.99474 2264 ft 106 kts 133°
2026-05-04 05:14 32.86275 -96.98755 2540 ft 106 kts 133°
2026-05-04 05:14 32.85844 -96.98030 2837 ft 107 kts 132°
2026-05-04 05:14 32.85551 -96.97544 2989 ft 113 kts 133°
2026-05-04 05:14 32.85072 -96.96767 3215 ft 116 kts 133°
2026-05-04 05:15 32.84591 -96.95992 3438 ft 117 kts 133°
2026-05-04 05:15 32.84122 -96.95190 3690 ft 121 kts 117°
2026-05-04 05:15 32.83913 -96.94209 3944 ft 123 kts 109°
2026-05-04 05:15 32.83702 -96.93218 4158 ft 124 kts 109°
2026-05-04 05:16 32.83413 -96.91902 4451 ft 124 kts 109°
2026-05-04 05:16 32.83265 -96.91232 4591 ft 124 kts 109°
2026-05-04 05:16 32.83046 -96.90246 4815 ft 125 kts 109°
2026-05-04 05:16 32.82822 -96.89243 5081 ft 126 kts 108°
2026-05-04 05:17 32.82597 -96.88232 5334 ft 127 kts 108°
2026-05-04 05:17 32.82368 -96.87202 5579 ft 128 kts 108°
2026-05-04 05:17 32.82143 -96.86195 5832 ft 128 kts 108°
2026-05-04 05:17 32.81914 -96.85169 6043 ft 129 kts 107°
2026-05-04 05:18 32.81684 -96.84142 6301 ft 129 kts 107°
2026-05-04 05:18 32.81453 -96.83104 6517 ft 130 kts 107°
2026-05-04 05:18 32.81221 -96.82066 6729 ft 130 kts 106°
2026-05-04 05:18 32.80987 -96.81021 6963 ft 131 kts 105°
2026-05-04 05:19 32.80739 -96.79916 7016 ft 147 kts 105°
2026-05-04 05:19 32.80465 -96.78693 7018 ft 158 kts 105°
2026-05-04 05:19 32.80175 -96.77398 7019 ft 165 kts 105°
2026-05-04 05:19 32.79877 -96.76068 7023 ft 168 kts 105°
2026-05-04 05:20 32.79574 -96.74713 7021 ft 171 kts 105°
2026-05-04 05:20 32.79267 -96.73340 7023 ft 172 kts 105°
2026-05-04 05:20 32.78955 -96.71955 7018 ft 174 kts 105°
2026-05-04 05:20 32.78641 -96.70565 7022 ft 174 kts 105°
2026-05-04 05:21 32.78315 -96.69172 7030 ft 175 kts 105°
2026-05-04 05:21 32.78061 -96.67769 7018 ft 173 kts 89°
2026-05-04 05:21 32.78412 -96.66454 7018 ft 164 kts 62°
2026-05-04 05:21 32.78905 -96.65302 7016 ft 150 kts 61°
2026-05-04 05:22 32.79343 -96.64186 6899 ft 150 kts 65°
2026-05-04 05:22 32.79757 -96.63032 6751 ft 152 kts 66°
2026-05-04 05:22 32.80157 -96.61882 6562 ft 151 kts 66°
2026-05-04 05:22 32.80559 -96.60727 6337 ft 151 kts 66°
2026-05-04 05:23 32.80953 -96.59590 5939 ft 151 kts 66°
2026-05-04 05:23 32.81361 -96.58418 5711 ft 152 kts 68°
2026-05-04 05:23 32.81762 -96.57263 5425 ft 150 kts 68°
2026-05-04 05:23 32.82061 -96.55962 4386 ft 173 kts 86°
2026-05-04 05:24 32.81814 -96.54606 3822 ft 159 kts 122°
2026-05-04 05:24 32.81167 -96.53619 3449 ft 146 kts 147°
2026-05-04 05:24 32.80253 -96.53305 2868 ft 134 kts 177°
2026-05-04 05:24 32.79329 -96.52997 1297 ft 152 kts 171°
2026-05-04 05:25 32.78420 -96.52972 983 ft 126 kts 182°
2026-05-04 05:25 32.77563 -96.53003 888 ft 116 kts 179°
2026-05-04 05:25 32.76814 -96.52995 821 ft 96 kts 178°
2026-05-04 05:25 32.76199 -96.53019 651 ft 85 kts 177°
2026-05-04 05:26 32.75635 -96.53027 492 ft 77 kts 178°
2026-05-04 05:26 32.75206 -96.53034 448 ft 27 kts 180°
2026-05-04 05:26 32.75156 -96.53109 449 ft 12 kts 269°
2026-05-04 05:26 32.75141 -96.53132 449 ft 6 kts 195°